[TLELIST] Archives

 

Current TLEs <21 OCT 2005>

October 21st 2005 PDT

HST 1 20580U 90037B 05294.75884666 .00000649 00000-0 38072-4 0 4532 2 20580 28.4662 163.9843 0003993 176.3505 183.7097 14.99872196649268 ISS 1 25544U 98067A 05294.95524905 .00018598 00000-0 13075-3 0 5995 2 25544 51.6438 331.3877 0001048 90.5192 344.6268 15.74196937395631 CHANDRA 1 25867U 99040B 05294.75000000 .00000000 00000-0 00000+0 0 8462 2 25867 57.9258 101.1875 5697826 296.2728 355.6206 0.37795010 1211 These 2-Line Elements (TLEs) ...Continue Reading

Current TLEs <18 OCT 2005>

October 18th 2005 PDT

HST 1 20580U 90037B 05290.96597924 .00000600 00000-0 34174-4 0 4535 2 20580 28.4676 188.7075 0003980 137.9205 222.1693 14.99868204648692 ISS 1 25544U 98067A 05291.95866898 .00015999 00000-0 11291-3 0 5767 2 25544 51.6449 346.7745 0001754 102.2764 260.1288 15.74239379395167 CHANDRA 1 25867U 99040B 05289.45833333 .00000000 00000-0 00000+0 0 8444 2 25867 57.8306 101.3752 5705316 296.2175 355.3267 0.37809898 1214 These 2-Line Elements (TLEs) ...Continue Reading

Current TLEs <17 OCT 2005>

October 17th 2005 PDT

HST 1 20580U 90037B 05290.89943757 .00000600 00000-0 34194-4 0 4505 2 20580 28.4678 189.1417 0003976 137.3604 222.7294 14.99868163648687 ISS 1 25544U 98067A 05290.94189815 .00014489 00000-0 10285-3 0 5699 2 25544 51.6446 351.9969 0001659 102.9464 253.3140 15.74199464394999 CHANDRA 1 25867U 99040B 05289.45833333 .00000000 00000-0 00000+0 0 8444 2 25867 57.8306 101.3752 5705316 296.2175 355.3267 0.37809898 1214 These 2-Line Elements (TLEs) ...Continue Reading

Current TLEs <13 OCT 2005>

October 13th 2005 PDT

HST 1 20580U 90037B 05285.17683909 .00000740 00000-0 45263-4 0 4469 2 20580 28.4680 226.4326 0003736 77.4377 282.6630 14.99863048647820 ISS 1 25544U 98067A 05286.05584491 .00027730 00000-0 19364-3 0 5392 2 25544 51.6450 17.0899 0001829 87.5837 281.4853 15.74074999394232 CHANDRA 1 25867U 99040B 05284.16666667 .00000000 00000-0 00000+0 0 8429 2 25867 57.7937 101.5258 5690126 296.2475 354.9971 0.37788688 1211 These 2-Line Elements (TLEs) ...Continue Reading

Current TLEs <02 OCT 2005>

October 2nd 2005 PDT

HST 1 20580U 90037B 05274.46352717 .00000643 00000-0 37662-4 0 4386 2 20580 28.4693 296.2498 0003546 316.6054 43.4252 14.99853252646219 ISS 1 25544U 98067A 05275.19359954 .00014021 00000-0 10227-3 0 4699 2 25544 51.6431 72.8463 0001720 95.7503 249.5389 15.73592762392518 CHANDRA 1 25867U 99040B 05273.62500000 .00000000 00000-0 00000+0 0 8381 2 25867 57.6910 101.7873 5685498 296.4055 359.6904 0.37797388 1213 These 2-Line Elements (TLEs) ...Continue Reading

Current TLEs <28 SEP 2005>

September 28th 2005 PDT

HST 1 20580U 90037B 05270.20480210 .00000821 00000-0 51672-4 0 4356 2 20580 28.4697 323.9974 0003697 270.1778 89.8387 14.99849976645573 ISS 1 25544U 98067A 05271.08573113 .00018051 00000-0 13102-3 0 4432 2 25544 51.6433 93.9238 0001806 86.2857 13.4056 15.73472395391872 CHANDRA 1 25867U 99040B 05270.95833333 .00000000 00000-0 00000+0 0 8371 2 25867 57.6955 101.8337 5680567 296.4733 356.6284 0.37790518 1219 These 2-Line Elements (TLEs) ...Continue Reading

Current TLEs <19 SEP 2005>

September 19th 2005 PDT

HST 1 20580U 90037B 05261.75387168 .00001130 00000-0 76045-4 0 4292 2 20580 28.4693 19.0659 0004361 183.1555 176.9033 14.99838842644303 ISS 1 25544U 98067A 05262.43153935 .00021126 00000-0 15483-3 0 3864 2 25544 51.6428 138.3140 0001891 78.3205 291.9640 15.73120920390511 CHANDRA 1 25867U 99040B 05260.37500000 .00000000 00000-0 00000+0 0 8334 2 25867 57.5977 102.1268 5679223 296.5199 355.9308 0.37801824 1215 These 2-Line Elements (TLEs) ...Continue Reading

Current TLEs <16 SEP 2005>

September 17th 2005 PDT

HST 1 20580U 90037B 05258.75943374 .00000890 00000-0 57092-4 0 4276 2 20580 28.4675 38.5874 0004235 154.6020 205.4782 14.99834054643857 ISS 1 25544U 98067A 05260.10746425 .00017165 00000-0 12727-3 0 3741 2 25544 51.6429 150.2338 0001862 72.1450 87.9038 15.73012144390147 CHANDRA 1 25867U 99040B 05260.37500000 .00000000 00000-0 00000+0 0 8334 2 25867 57.5977 102.1268 5679223 296.5199 355.9308 0.37801824 1215 These 2-Line Elements (TLEs) ...Continue Reading

Current TLEs <06 SEP 2005>

September 6th 2005 PDT

HST 1 20580U 90037B 05248.84443644 .00000613 00000-0 35338-4 0 4205 2 20580 28.4670 103.1952 0003289 52.7396 307.3486 14.99821127642365 ISS 1 25544U 98067A 05249.11922454 .00024480 00000-0 18269-3 0 2965 2 25544 51.6427 206.5469 0001743 38.7220 143.7819 15.72591401388418 CHANDRA 1 25867U 99040B 05247.16666667 .00000000 00000-0 00000+0 0 8282 2 25867 57.5405 102.3940 5658687 296.8330 357.5386 0.37797585 1213 These 2-Line Elements (TLEs) ...Continue Reading

Current TLEs <02 SEP 2005>

September 2nd 2005 PDT

HST 1 20580U 90037B 05244.71870909 .00000618 00000-0 35687-4 0 4173 2 20580 28.4679 130.0817 0003067 2.6518 357.4107 14.99816246641740 ISS 1 25544U 98067A 05245.98303502 .00023618 00000-0 17767-3 0 2765 2 25544 51.6420 222.6160 0001307 25.7039 30.7023 15.72425363387928 CHANDRA 1 25867U 99040B 05244.54166667 .00000000 00000-0 00000+0 0 8275 2 25867 57.5546 102.4408 5652596 296.9091 0.1410 0.37788836 1215 These 2-Line Elements (TLEs) ...Continue Reading
  • This mailing list is a public mailing list - anyone may join or leave, at any time.
  • This mailing list is announce-only.

International Space Station (ISS) / Hubble Space Telescope (HST) / Chandra X-Ray Observatory Orbital Data via EMAIL

Privacy Policy:

Private list